TimeEDT,TemperatureF,Dew PointF,Humidity,Sea Level PressureIn,VisibilityMPH,Wind Direction,Wind SpeedMPH,Gust SpeedMPH,PrecipitationIn,Events,Conditions,WindDirDegrees,DateUTC
12:15 AM,73.4,73.4,100,30.15,7.0,Calm,Calm,-,N/A,,Mostly Cloudy,0,2013-08-20 04:15:00
12:35 AM,73.4,73.4,100,30.14,10.0,Calm,Calm,-,N/A,,Mostly Cloudy,0,2013-08-20 04:35:00
12:55 AM,71.6,71.6,100,30.14,1.8,Calm,Calm,-,N/A,,Mostly Cloudy,0,2013-08-20 04:55:00
1:15 AM,73.4,73.4,100,30.14,5.0,Calm,Calm,-,N/A,,Mostly Cloudy,0,2013-08-20 05:15:00
1:35 AM,73.4,73.4,100,30.14,7.0,Calm,Calm,-,N/A,,Overcast,0,2013-08-20 05:35:00
1:55 AM,73.4,73.4,100,30.14,10.0,Calm,Calm,-,N/A,,Overcast,0,2013-08-20 05:55:00
2:15 AM,73.4,73.4,100,30.13,5.0,Calm,Calm,-,N/A,,Overcast,0,2013-08-20 06:15:00
2:35 AM,73.4,73.4,100,30.13,0.8,South,3.5,-,N/A,,Overcast,190,2013-08-20 06:35:00
2:55 AM,73.4,73.4,100,30.12,0.5,Calm,Calm,-,N/A,Fog,Fog,0,2013-08-20 06:55:00
3:15 AM,73.4,73.4,100,30.12,0.2,Calm,Calm,-,N/A,Fog,Fog,0,2013-08-20 07:15:00
3:35 AM,73.4,73.4,100,30.12,0.2,Calm,Calm,-,N/A,Fog,Fog,0,2013-08-20 07:35:00
3:55 AM,73.4,73.4,100,30.12,0.2,Calm,Calm,-,N/A,Fog,Fog,0,2013-08-20 07:55:00
4:15 AM,71.6,71.6,100,30.12,0.2,Calm,Calm,-,N/A,Fog,Fog,0,2013-08-20 08:15:00
4:35 AM,71.6,71.6,100,30.12,0.5,Calm,Calm,-,N/A,Fog,Fog,0,2013-08-20 08:35:00
4:55 AM,71.6,71.6,100,30.13,0.2,Calm,Calm,-,N/A,Fog,Fog,0,2013-08-20 08:55:00
5:15 AM,71.6,71.6,100,30.13,0.2,Calm,Calm,-,N/A,Fog,Fog,0,2013-08-20 09:15:00
5:35 AM,71.6,71.6,100,30.13,0.2,Calm,Calm,-,N/A,Fog,Fog,0,2013-08-20 09:35:00
5:55 AM,71.6,71.6,100,30.13,0.2,Calm,Calm,-,N/A,Fog,Fog,0,2013-08-20 09:55:00
6:15 AM,71.6,71.6,100,30.14,0.2,Calm,Calm,-,N/A,Fog,Fog,0,2013-08-20 10:15:00
6:35 AM,69.8,69.8,100,30.14,0.2,Calm,Calm,-,N/A,Fog,Fog,0,2013-08-20 10:35:00
6:55 AM,69.8,69.8,100,30.15,0.2,Calm,Calm,-,N/A,Fog,Fog,0,2013-08-20 10:55:00
7:15 AM,71.6,71.6,100,30.16,0.2,Calm,Calm,-,N/A,Fog,Fog,0,2013-08-20 11:15:00
7:35 AM,71.6,71.6,100,30.17,0.2,Calm,Calm,-,N/A,Fog,Fog,0,2013-08-20 11:35:00
7:55 AM,71.6,71.6,100,30.17,0.2,Calm,Calm,-,N/A,Fog,Fog,0,2013-08-20 11:55:00
8:15 AM,73.4,73.4,100,30.18,1.8,Calm,Calm,-,N/A,,Overcast,0,2013-08-20 12:15:00
8:35 AM,73.4,73.4,100,30.19,1.0,Calm,Calm,-,N/A,,Overcast,0,2013-08-20 12:35:00
8:55 AM,75.2,75.2,100,30.19,3.0,Calm,Calm,-,N/A,,Overcast,0,2013-08-20 12:55:00
9:15 AM,75.2,75.2,100,30.19,10.0,Calm,Calm,-,N/A,,Overcast,0,2013-08-20 13:15:00
9:35 AM,77.0,77.0,100,30.19,10.0,NNW,3.5,-,N/A,,Scattered Clouds,330,2013-08-20 13:35:00
9:55 AM,78.8,78.8,100,30.20,10.0,North,3.5,-,N/A,,Scattered Clouds,360,2013-08-20 13:55:00
10:15 AM,78.8,78.8,100,30.21,10.0,Calm,Calm,-,N/A,,Clear,0,2013-08-20 14:15:00
10:35 AM,78.8,78.8,100,30.21,10.0,North,4.6,-,N/A,,Scattered Clouds,350,2013-08-20 14:35:00
10:55 AM,80.6,80.6,100,30.21,10.0,North,5.8,-,N/A,,Mostly Cloudy,360,2013-08-20 14:55:00
11:15 AM,82.4,80.6,94,30.21,10.0,North,6.9,-,N/A,,Scattered Clouds,350,2013-08-20 15:15:00
11:35 AM,86.0,80.6,84,30.21,10.0,NNW,5.8,-,N/A,,Clear,340,2013-08-20 15:35:00
11:55 AM,86.0,80.6,84,30.21,10.0,Calm,Calm,-,N/A,,Clear,0,2013-08-20 15:55:00
12:15 PM,86.0,78.8,79,30.21,10.0,ESE,3.5,-,N/A,,Scattered Clouds,120,2013-08-20 16:15:00
12:35 PM,87.8,77.0,70,30.21,10.0,Calm,Calm,-,N/A,,Scattered Clouds,0,2013-08-20 16:35:00
12:55 PM,87.8,77.0,70,30.21,10.0,Calm,Calm,-,N/A,,Mostly Cloudy,0,2013-08-20 16:55:00
1:15 PM,87.8,78.8,75,30.20,10.0,ENE,4.6,-,N/A,,Mostly Cloudy,60,2013-08-20 17:15:00
1:35 PM,87.8,77.0,70,30.20,10.0,East,4.6,-,N/A,,Scattered Clouds,80,2013-08-20 17:35:00
1:55 PM,89.6,78.8,70,30.20,10.0,SE,3.5,-,N/A,,Mostly Cloudy,140,2013-08-20 17:55:00
2:15 PM,89.6,78.8,70,30.19,10.0,SE,5.8,-,N/A,,Overcast,130,2013-08-20 18:15:00
2:35 PM,89.6,78.8,70,30.18,10.0,ESE,6.9,-,N/A,,Scattered Clouds,110,2013-08-20 18:35:00
2:55 PM,89.6,78.8,70,30.18,10.0,ESE,5.8,-,N/A,,Scattered Clouds,120,2013-08-20 18:55:00
3:15 PM,89.6,78.8,70,30.17,10.0,ESE,6.9,-,N/A,,Clear,120,2013-08-20 19:15:00
3:35 PM,89.6,78.8,70,30.17,10.0,SSE,4.6,-,N/A,,Scattered Clouds,160,2013-08-20 19:35:00
3:55 PM,89.6,78.8,70,30.16,10.0,ESE,4.6,-,N/A,,Scattered Clouds,120,2013-08-20 19:55:00
4:15 PM,91.4,78.8,66,30.16,10.0,SE,4.6,-,N/A,,Clear,140,2013-08-20 20:15:00
4:35 PM,89.6,78.8,70,30.15,10.0,ESE,5.8,-,N/A,,Clear,110,2013-08-20 20:35:00
4:55 PM,89.6,78.8,70,30.15,10.0,East,5.8,-,N/A,,Clear,90,2013-08-20 20:55:00
5:15 PM,89.6,78.8,70,30.15,10.0,SSE,4.6,-,N/A,,Scattered Clouds,150,2013-08-20 21:15:00
5:35 PM,89.6,78.8,70,30.15,10.0,SE,4.6,-,N/A,,Scattered Clouds,140,2013-08-20 21:35:00
5:55 PM,89.6,78.8,70,30.14,10.0,SSE,9.2,-,N/A,,Clear,160,2013-08-20 21:55:00
6:15 PM,89.6,78.8,70,30.14,10.0,South,5.8,-,N/A,,Clear,170,2013-08-20 22:15:00
6:35 PM,87.8,78.8,75,30.14,10.0,SSE,5.8,-,N/A,,Clear,160,2013-08-20 22:35:00
6:55 PM,86.0,78.8,79,30.14,10.0,SSE,3.5,-,N/A,,Clear,150,2013-08-20 22:55:00
7:15 PM,86.0,78.8,79,30.15,10.0,Calm,Calm,-,N/A,,Clear,0,2013-08-20 23:15:00
7:35 PM,86.0,78.8,79,30.16,10.0,Calm,Calm,-,N/A,,Clear,0,2013-08-20 23:35:00
7:55 PM,84.2,80.6,89,30.16,10.0,Calm,Calm,-,N/A,,Clear,0,2013-08-20 23:55:00
8:15 PM,82.4,80.6,94,30.16,10.0,Calm,Calm,-,N/A,,Clear,0,2013-08-21 00:15:00
8:35 PM,80.6,78.8,94,30.17,10.0,Calm,Calm,-,N/A,,Clear,0,2013-08-21 00:35:00
8:55 PM,78.8,78.8,100,30.17,10.0,Calm,Calm,-,N/A,,Clear,0,2013-08-21 00:55:00
9:15 PM,78.8,78.8,100,30.18,7.0,Calm,Calm,-,N/A,,Clear,0,2013-08-21 01:15:00
9:35 PM,78.8,78.8,100,30.18,7.0,Calm,Calm,-,N/A,,Clear,0,2013-08-21 01:35:00
9:55 PM,77.0,77.0,100,30.19,7.0,Calm,Calm,-,N/A,,Clear,0,2013-08-21 01:55:00
10:15 PM,77.0,77.0,100,30.19,7.0,Calm,Calm,-,N/A,,Clear,0,2013-08-21 02:15:00
10:35 PM,77.0,77.0,100,30.19,5.0,Calm,Calm,-,N/A,,Clear,0,2013-08-21 02:35:00
10:55 PM,77.0,77.0,100,30.19,7.0,Calm,Calm,-,N/A,,Clear,0,2013-08-21 02:55:00
11:15 PM,77.0,77.0,100,30.19,7.0,Calm,Calm,-,N/A,,Clear,0,2013-08-21 03:15:00
11:35 PM,77.0,77.0,100,30.19,5.0,Calm,Calm,-,N/A,,Clear,0,2013-08-21 03:35:00
11:55 PM,73.4,73.4,100,30.19,1.5,Calm,Calm,-,N/A,,Mist,0,2013-08-21 03:55:00